This is the latest recevied weather packets stored in our database for station/object N6RDS-8. If no packets are shown the sender has not sent any weather packets the latest 10 day(s).
| Time | Temp. | Humidity | Pressure | Rain* | Wind** | Luminosity | Snow |
|---|---|---|---|---|---|---|---|
| 1778170741 | 22.22° C | 28% | 1019.4 hPa | 0 mm | - | 501 W/m² | - |
| 1778170437 | 21.67° C | 27% | 1019.5 hPa | 0 mm | - | 487 W/m² | - |
| 1778170134 | 21.67° C | 29% | 1019.6 hPa | 0 mm | - | 474 W/m² | - |
| 1778169830 | 21.11° C | 29% | 1019.5 hPa | 0 mm | - | 460 W/m² | - |
| 1778169526 | 20.56° C | 31% | 1019.7 hPa | 0 mm | - | 445 W/m² | - |
| 1778169222 | 20.56° C | 30% | 1019.6 hPa | 0 mm | - | 431 W/m² | - |
| 1778168919 | 20.56° C | 31% | 1019.8 hPa | 0 mm | - | 416 W/m² | - |
| 1778168616 | 20° C | 31% | 1019.8 hPa | 0 mm | - | 402 W/m² | - |
| 1778168313 | 18.89° C | 34% | 1019.8 hPa | 0 mm | - | 388 W/m² | - |
| 1778168010 | 19.44° C | 32% | 1020 hPa | 0 mm | - | 371 W/m² | - |
| 1778167706 | 18.89° C | 33% | 1020 hPa | 0 mm | - | 355 W/m² | - |
| 1778167403 | 18.89° C | 33% | 1020 hPa | 0 mm | - | 339 W/m² | - |
| 1778167099 | 18.33° C | 34% | 1020 hPa | 0 mm | - | 325 W/m² | - |
| 1778166795 | 17.78° C | 34% | 1020 hPa | 0 mm | - | 310 W/m² | - |
| 1778166492 | 17.22° C | 36% | 1020.1 hPa | 0 mm | - | 295 W/m² | - |
| 1778166189 | 17.22° C | 38% | 1020 hPa | 0 mm | - | 278 W/m² | - |
| 1778165885 | 16.67° C | 38% | 1020 hPa | 0 mm | - | 267 W/m² | - |
| 1778165581 | 16.67° C | 38% | 1020.3 hPa | 0 mm | - | 247 W/m² | - |
| 1778165279 | 15.56° C | 39% | 1020 hPa | 0 mm | - | 232 W/m² | - |
| 1778164976 | 15.56° C | 40% | 1020.3 hPa | 0 mm | - | 220 W/m² | - |
| 1778164672 | 15° C | 40% | 1020.3 hPa | 0 mm | - | 205 W/m² | - |
| 1778164370 | 14.44° C | 42% | 1020.4 hPa | 0 mm | - | 190 W/m² | - |
| 1778164066 | 14.44° C | 41% | 1020.4 hPa | 0 mm | - | 177 W/m² | - |
| 1778163762 | 13.89° C | 41% | 1020.4 hPa | 0 mm | - | 164 W/m² | - |
| 1778163459 | 13.33° C | 42% | 1020.4 hPa | 0 mm | - | 149 W/m² | - |
* Rain latest hour (hover to see other rain measurements)
** Current wind speed in m/s (hover to see current wind gust speed)